sat.trackr.live / text

‹ back to catalog

STARLINK-3138

NORAD 49430 · 2021-104Y

PAYLOAD ACTIVE UNKNOWN

§ Identity

Operator
Country
US
Launch date
2021-11-13
Launch site
AFETR
Launch vehicle
Mass (kg)
RCS (m²)

Purposes: comms

External: N2YO · Heavens-Above · Gunter

§ Orbital elements

Epoch: 2026-09-19T18:29:44.715552Z

Period
93.85 min
Inclination
53.1600°
Eccentricity
0.0000576
Mean motion
15.34375500 rev/d
Perigee alt
462.4 km
Apogee alt
463.2 km
Semi-major
6,840.9 km
B*
-1.8146e-5
RAAN
64.7738°
Arg perigee
84.3724°
Mean anomaly
275.7344°
Rev number
26,811

§ Raw data

STARLINK-31381 49430U 21104Y   26262.77065643 -.00000988  00000+0 -18146-4 0  99942 49430  53.1600  64.7738 0000576  84.3724 275.7344 15.34375500268111

JSON: /api/v1/satellites/49430 · /tle

For live sub-satellite position, see the globe view (requires WebGL).

§ Visibility from observer

Set your observer location to see the next 7 days of passes ≥ 10°. The values pass through the URL so the page stays shareable.

No JS? Fill the form by hand. The geolocation button needs JavaScript.